Miscellaneous Local Product
Issued by NWS North Platte, NE

Home | Current Version | Previous Version | Text Only | Print | Product List | Glossary On
Versions: 1 2 3 4 5 6 7 8 9 10 11 12 13 14 15 16 17 18 19 20 21 22 23 24 25 26 27 28 29 30 31 32 33 34 35 36 37 38 39 40 41 42 43 44 45 46 47 48 49 50
582
AXUS43 KLBF 260010
MISLBF


WESTERN AND NORTH CENTRAL NEBRASKA HOURLY WEATHER ROUNDUP
NATIONAL WEATHER SERVICE NORTH PLATTE NE
700 PM CDT SUN JUN 25 2017

NOTE: "FAIR" INDICATES FEW OR NO CLOUDS BELOW 12,000 FEET WITH NO
SIGNIFICANT WEATHER AND/OR OBSTRUCTIONS TO VISIBILITY.

NOTE: STATIONS NOT REPORTING VARIABLES SUCH AS SKY/WEATHER OR
PRESSURE ARE PROVIDED BY RAWS AND APRS NETWORKS AND ARE NOT UNDER
NATIONAL WEATHER SERVICE QUALITY CONTROL.

...OBSERVATIONS IN AND NEAR THE EASTERN PANHANDLE OF NEBRASKA...

CITY           SKY/WX    TMP DP  RH WIND       PRES   REMARKS
PINE RIDGE     PTSUNNY   79  46  31 NE7       30.19F
GORDON         CLOUDY    75  40  28 CALM      30.19F
CHADRON        SUNNY     79  39  23 W3        30.18F
ALLIANCE       MOSUNNY   74  40  29 S9        30.22F
SIDNEY         SUNNY     71  49  45 SE12      30.28F
$$

...OBSERVATIONS IN NORTHERN NEBRASKA AND FAR SOUTHERN SOUTH DAKOTA...

CITY           SKY/WX    TMP DP  RH WIND       PRES   REMARKS
WINNER         FAIR      81  35  19 SW7       30.16F
VALENTINE      PTSUNNY   78  33  19 SW3       30.18F
THEDFORD       PTSUNNY   79  41  26 S14       30.21F
AINSWORTH      MOSUNNY   77  39  25 SE6       30.19F
O`NEILL        SUNNY     74  39  27 NW5       30.21F
ORD            SUNNY     76  36  23 S9        30.21F
BROKEN BOW     MOSUNNY   76  41  28 S9        30.22F
VALENTINE NWR    N/A     76  38  25 S6G13       N/A
HALSEY           N/A     76  37  24 CALM        N/A
BUTTE            N/A     72  40  31 S8          N/A
CHAMBERS         N/A     86  43  21 CALM        N/A
EWING            N/A     75  45  33 CALM        N/A
$$

...OBSERVATIONS IN SOUTHWEST NEBRASKA AND FAR NORTHEAST COLORADO...

CITY           SKY/WX    TMP DP  RH WIND       PRES   REMARKS
WRAY           CLOUDY    64  54  68 SE8       30.27F
IMPERIAL       PTSUNNY   66  52  60 S13       30.28S
OGALLALA       MOSUNNY   74  47  37 S13       30.26S
NORTH PLATTE   MOSUNNY   76  45  33 S8        30.23F
MCCOOK         CLOUDY    68  54  60 S8        30.26F
LEXINGTON      SUNNY     74  46  36 S12       30.26S
STAPLETON        N/A     78  47  33 CALM        N/A
GOTHENBURG       N/A     73  44  35 SE6         N/A
CALLAWAY         N/A     76  49  38 SW10        N/A
$$

...OBSERVATIONS IN CENTRAL LINCOLN COUNTY AREA...

CITY           SKY/WX    TMP DP  RH WIND       PRES   REMARKS
N.P. AIRPORT   MOSUNNY   76  45  33 S8        30.23F
N.P. DOWNTOWN    N/A     77  49  36 CALM        N/A
N.P. SOUTHEAST   N/A     74  47  38 S6          N/A
N.P. HILLCREST   N/A     75  47  37 S9          N/A
$$

...SOME OBSERVATIONS FROM AROUND THE REGION...

CITY           SKY/WX    TMP DP  RH WIND       PRES   REMARKS
DENVER         MOSUNNY   73  53  49 N12       30.28F
LIMON          CLOUDY    67  56  67 SE16      30.28S
ASPEN          SUNNY     80  21  11 N15G25    30.32F
LARAMIE        SUNNY     73  27  18 N21G32    30.34F
CASPER         SUNNY     78  30  17 VRB7      30.26F
CHEYENNE       MOSUNNY   69  48  47 MISG      30.33S
SCOTTSBLUFF    SUNNY     78  44  29 SE12      30.22F
GRAND ISLAND   SUNNY     76  41  28 SW8       30.24F
OMAHA          MOSUNNY   77  40  26 NE7       30.22F
SIOUX FALLS    MOSUNNY   72  47  40 NW6       30.20F
PIERRE         SUNNY     79  34  19 NW9       30.12F
RAPID CITY     MOSUNNY   76  36  23 N6        30.19F
BISMARCK       MOSUNNY   72  43  35 NW15G23   30.20F
KANSAS CITY    CLOUDY    67  52  58 W12       30.25F
HILL CITY      CLOUDY    63  61  93 E12       30.25F
WICHITA        CLOUDY    69  61  75 E13       30.23F
DODGE CITY     CLOUDY    70  58  65 SE14      30.24S
OKLAHOMA CITY  CLOUDY    83  49  30 SE5       30.17S
DALLAS         MOSUNNY   86  59  39 E8        30.10S
AMARILLO       SUNNY     79  61  53 SE17G23   30.19S
$$




USA.gov is the U.S. government's official web portal to all federal, state and local government web resources and services.